WXM80 ListenWXM80 Stop

You find our weather info also at:

UK Metoffice

WeatherCloud

Weather Underground

Northeastern Weather Network

AWEKAS

Citizen Weather Observer Program (CWOP)

HAMweather, WeatherForYou, PWS Weather


Weather Underground History page Text

Daily Summary for January 9, 2018 Units:  English    Metric   Both
« Previous Day
Next Day »
Daily Weekly Monthly Yearly Custom
  High: Low: Average:
Temperature: 42.9 °F 31.6 °F 34.9 °F
Dew Point: 30.5 °F 25.9 °F 28 °F
Humidity: 83 % 55 % 76 %
Wind Speed: 10.4 mph 0.0 mph 4.6 mph
Wind Gust: 19.6 mph - -
Wind:- - WSW
Pressure: 30.38 in 29.75 in -
Precipitation: 0.00 in    
Historical Graphs
 
 
Tabular Data for January 9, 2018
Time Temperature Dew Point Pressure Wind Wind Speed Wind Gust Humidity Rainfall Rate (Hourly)
00:00 32.0 °F 26.2 °F 30.01 in South 6.8 mph 11.5 mph 79 % 0.00 in
00:01 32.0 °F 26.2 °F 30.01 in SW 5.9 mph 11.5 mph 79 % 0.00 in
00:03 32.0 °F 26.2 °F 30.01 in WSW 2.9 mph 9.2 mph 79 % 0.00 in
00:06 32.0 °F 26.2 °F 30.01 in West 1.9 mph 6.9 mph 79 % 0.00 in
00:07 32.0 °F 26.2 °F 30.01 in SW 2.2 mph 7.0 mph 79 % 0.00 in
00:08 32.0 °F 26.2 °F 30.01 in SW 4.7 mph 7.0 mph 79 % 0.00 in
00:10 32.0 °F 26.2 °F 30.01 in SW 2.9 mph 9.2 mph 79 % 0.00 in
00:11 32.0 °F 25.9 °F 30.01 in WSW 4.2 mph 10.0 mph 78 % 0.00 in
00:12 32.0 °F 25.9 °F 30.01 in SW 3.4 mph 6.9 mph 78 % 0.00 in
00:13 32.1 °F 26.0 °F 29.76 in SW 3.2 mph 5.8 mph 78 % 0.00 in
00:15 32.1 °F 26.0 °F 30.01 in WSW 2.6 mph 6.0 mph 78 % 0.00 in
00:16 32.1 °F 26.0 °F 30.01 in West 5.3 mph 9.2 mph 78 % 0.00 in
00:17 32.1 °F 26.0 °F 30.01 in WSW 3.3 mph 9.2 mph 78 % 0.00 in
00:20 32.1 °F 26.0 °F 30.01 in WSW 4.1 mph 8.1 mph 78 % 0.00 in
00:21 32.1 °F 26.0 °F 30.01 in SW 4.6 mph 11.5 mph 78 % 0.00 in
00:22 32.1 °F 26.0 °F 30.00 in WSW 3.5 mph 8.0 mph 78 % 0.00 in
00:23 32.1 °F 26.0 °F 30.01 in West 4.5 mph 8.1 mph 78 % 0.00 in
00:24 32.1 °F 26.0 °F 30.01 in WSW 4.2 mph 8.1 mph 78 % 0.00 in
00:27 32.1 °F 26.0 °F 30.01 in WSW 2.6 mph 10.4 mph 78 % 0.00 in
00:28 32.1 °F 26.0 °F 30.01 in WSW 2.9 mph 4.6 mph 78 % 0.00 in
00:29 32.1 °F 26.0 °F 30.01 in West 5.3 mph 9.2 mph 78 % 0.00 in
00:30 32.2 °F 26.1 °F 30.01 in WSW 3.9 mph 9.2 mph 78 % 0.00 in
00:32 32.2 °F 26.1 °F 30.01 in SW 5.9 mph 10.4 mph 78 % 0.00 in
00:36 32.2 °F 26.1 °F 30.01 in SSW 3.8 mph 8.1 mph 78 % 0.00 in
00:38 32.1 °F 26.0 °F 29.76 in SW 4.7 mph 6.9 mph 78 % 0.00 in
00:39 32.2 °F 26.1 °F 30.00 in WSW 3.2 mph 9.2 mph 78 % 0.00 in
00:40 32.1 °F 26.0 °F 29.76 in West 3.1 mph 4.6 mph 78 % 0.00 in
00:42 32.2 °F 26.1 °F 30.00 in WSW 3.7 mph 5.8 mph 78 % 0.00 in
00:43 32.2 °F 26.1 °F 30.00 in WNW 1.1 mph 5.8 mph 78 % 0.00 in
00:45 32.2 °F 26.1 °F 29.76 in SSW 2.4 mph 6.9 mph 78 % 0.00 in
00:46 32.1 °F 26.0 °F 30.00 in South 1.7 mph 6.9 mph 78 % 0.00 in
00:48 32.1 °F 26.0 °F 30.00 in SSW 2.4 mph 6.9 mph 78 % 0.00 in
00:51 32.2 °F 26.1 °F 30.00 in West 3.3 mph 10.4 mph 78 % 0.00 in
00:52 32.2 °F 26.1 °F 30.00 in SSW 3.3 mph 8.1 mph 78 % 0.00 in
00:53 32.1 °F 26.0 °F 30.01 in West 2.6 mph 8.1 mph 78 % 0.00 in
00:54 32.2 °F 26.1 °F 30.00 in SW 4.5 mph 10.4 mph 78 % 0.00 in
00:55 32.1 °F 26.0 °F 30.00 in WSW 4.3 mph 10.4 mph 78 % 0.00 in
00:56 32.2 °F 26.1 °F 30.00 in SW 3.5 mph 5.8 mph 78 % 0.00 in
00:58 32.1 °F 26.0 °F 30.00 in WSW 4.8 mph 4.8 mph 78 % 0.00 in
01:00 32.2 °F 26.1 °F 30.00 in SW 2.8 mph 8.1 mph 78 % 0.00 in
01:01 32.1 °F 26.0 °F 30.00 in SSW 4.0 mph 6.0 mph 78 % 0.00 in
01:03 32.1 °F 26.0 °F 30.00 in SW 3.8 mph 5.8 mph 78 % 0.00 in
01:05 32.1 °F 26.0 °F 30.00 in SW 2.9 mph 5.0 mph 78 % 0.00 in
01:06 32.1 °F 26.0 °F 30.00 in SSW 2.9 mph 4.6 mph 78 % 0.00 in
01:08 32.1 °F 26.0 °F 30.00 in SSW 2.6 mph 5.8 mph 78 % 0.00 in
01:10 32.1 °F 26.3 °F 30.00 in WSW 3.5 mph 6.9 mph 79 % 0.00 in
01:12 32.1 °F 26.3 °F 30.00 in WSW 5.2 mph 9.0 mph 79 % 0.00 in
01:13 32.1 °F 26.3 °F 29.75 in WSW 4.5 mph 9.2 mph 79 % 0.00 in
01:15 32.1 °F 26.3 °F 30.00 in WSW 2.9 mph 6.9 mph 79 % 0.00 in
01:16 32.1 °F 26.3 °F 30.00 in South 4.2 mph 5.8 mph 79 % 0.00 in
01:18 32.1 °F 26.3 °F 29.76 in WSW 5.3 mph 8.1 mph 79 % 0.00 in
01:21 32.1 °F 26.3 °F 30.01 in SW 5.0 mph 9.0 mph 79 % 0.00 in
01:26 32.1 °F 26.3 °F 29.76 in SW 1.0 mph 8.0 mph 79 % 0.00 in
01:28 32.1 °F 26.3 °F 30.01 in SSW 3.2 mph 5.8 mph 79 % 0.00 in
01:29 32.1 °F 26.3 °F 29.76 in SW 3.7 mph 4.6 mph 79 % 0.00 in
01:31 32.1 °F 26.3 °F 30.01 in WSW 3.3 mph 6.9 mph 79 % 0.00 in
01:32 32.0 °F 26.2 °F 30.01 in SW 3.5 mph 6.9 mph 79 % 0.00 in
01:34 32.0 °F 26.2 °F 29.77 in WSW 2.5 mph 8.1 mph 79 % 0.00 in
01:35 32.0 °F 26.2 °F 30.01 in SW 4.8 mph 9.0 mph 79 % 0.00 in
01:36 32.0 °F 26.2 °F 30.01 in SW 3.2 mph 9.2 mph 79 % 0.00 in
01:37 32.0 °F 26.2 °F 30.01 in SW 2.9 mph 9.2 mph 79 % 0.00 in
01:40 32.0 °F 26.2 °F 30.01 in WSW 5.0 mph 9.2 mph 79 % 0.00 in
01:41 31.9 °F 26.1 °F 30.02 in WSW 4.4 mph 9.2 mph 79 % 0.00 in
01:42 31.9 °F 26.1 °F 30.01 in SW 3.7 mph 6.9 mph 79 % 0.00 in
01:44 31.9 °F 26.1 °F 30.01 in SSW 2.8 mph 7.0 mph 79 % 0.00 in
01:45 31.9 °F 26.1 °F 29.77 in WSW 2.7 mph 6.9 mph 79 % 0.00 in
01:49 31.8 °F 26.0 °F 30.01 in SW 4.9 mph 8.1 mph 79 % 0.00 in
01:50 31.8 °F 26.0 °F 30.01 in SSW 4.6 mph 5.8 mph 79 % 0.00 in
01:52 31.7 °F 25.9 °F 30.02 in WSW 4.6 mph 9.2 mph 79 % 0.00 in
01:53 31.7 °F 25.9 °F 30.02 in SW 5.9 mph 9.2 mph 79 % 0.00 in
01:54 31.7 °F 25.9 °F 30.02 in SW 4.5 mph 9.2 mph 79 % 0.00 in
01:55 31.7 °F 25.9 °F 29.77 in SSW 6.6 mph 9.2 mph 79 % 0.00 in
01:56 31.7 °F 25.9 °F 30.02 in SSW 4.4 mph 11.5 mph 79 % 0.00 in
01:58 31.7 °F 25.9 °F 30.02 in SW 5.4 mph 10.4 mph 79 % 0.00 in
01:59 31.7 °F 26.2 °F 30.02 in SW 4.7 mph 8.1 mph 80 % 0.00 in
02:01 31.7 °F 26.2 °F 30.03 in SW 5.7 mph 9.2 mph 80 % 0.00 in
02:02 31.7 °F 26.2 °F 30.02 in SSW 4.9 mph 9.2 mph 80 % 0.00 in
02:03 31.7 °F 26.2 °F 30.02 in South 5.3 mph 8.1 mph 80 % 0.00 in
02:04 31.7 °F 26.2 °F 29.78 in South 3.2 mph 8.1 mph 80 % 0.00 in
02:05 31.7 °F 26.2 °F 30.02 in WSW 4.1 mph 4.6 mph 80 % 0.00 in
02:06 31.7 °F 26.2 °F 30.02 in SW 6.5 mph 9.2 mph 80 % 0.00 in
02:09 31.8 °F 26.3 °F 30.02 in SW 6.2 mph 10.4 mph 80 % 0.00 in
02:10 31.8 °F 26.6 °F 29.78 in WSW 7.0 mph 10.4 mph 81 % 0.00 in
02:11 31.8 °F 26.6 °F 30.03 in SW 3.8 mph 13.8 mph 81 % 0.00 in
02:12 31.8 °F 26.6 °F 30.02 in SW 4.2 mph 4.6 mph 81 % 0.00 in
02:14 31.9 °F 26.7 °F 30.02 in SW 5.1 mph 9.2 mph 81 % 0.00 in
02:16 31.9 °F 26.7 °F 30.02 in WSW 4.9 mph 9.2 mph 81 % 0.00 in
02:20 31.9 °F 26.7 °F 30.02 in WSW 4.4 mph 6.9 mph 81 % 0.00 in
02:21 32.0 °F 26.8 °F 30.02 in SSW 5.8 mph 8.1 mph 81 % 0.00 in
02:22 31.9 °F 26.7 °F 30.02 in SSW 5.7 mph 8.1 mph 81 % 0.00 in
02:23 32.0 °F 26.8 °F 30.02 in WSW 4.1 mph 9.2 mph 81 % 0.00 in
02:25 32.0 °F 26.8 °F 30.02 in WSW 4.5 mph 8.1 mph 81 % 0.00 in
02:27 32.0 °F 26.5 °F 30.03 in SSW 3.1 mph 6.9 mph 80 % 0.00 in
02:28 32.0 °F 26.5 °F 30.02 in SSW 4.8 mph 8.1 mph 80 % 0.00 in
02:29 32.0 °F 26.5 °F 29.77 in SW 4.2 mph 9.0 mph 80 % 0.00 in
02:32 32.0 °F 26.5 °F 30.02 in SW 4.4 mph 6.0 mph 80 % 0.00 in
02:33 31.9 °F 26.4 °F 30.02 in WSW 1.7 mph 6.9 mph 80 % 0.00 in
02:35 31.9 °F 26.4 °F 29.78 in WSW 2.2 mph 5.0 mph 80 % 0.00 in
02:36 31.9 °F 26.4 °F 30.03 in SSW 3.3 mph 6.9 mph 80 % 0.00 in
02:38 31.9 °F 26.4 °F 30.03 in SSW 4.4 mph 7.0 mph 80 % 0.00 in
02:39 31.9 °F 26.4 °F 29.78 in SSW 5.3 mph 6.9 mph 80 % 0.00 in
02:40 31.9 °F 26.4 °F 30.03 in SSW 3.7 mph 6.9 mph 80 % 0.00 in
02:41 31.9 °F 26.4 °F 30.03 in SW 3.8 mph 6.0 mph 80 % 0.00 in
02:44 31.8 °F 26.6 °F 30.03 in SW 3.1 mph 8.1 mph 81 % 0.00 in
02:50 31.7 °F 26.5 °F 30.03 in SSW 4.7 mph 7.0 mph 81 % 0.00 in
02:51 31.7 °F 26.5 °F 30.02 in WSW 5.2 mph 8.0 mph 81 % 0.00 in
02:52 31.7 °F 26.5 °F 30.02 in WSW 4.5 mph 8.1 mph 81 % 0.00 in
02:53 31.7 °F 26.5 °F 30.02 in SSW 5.4 mph 8.0 mph 81 % 0.00 in
02:54 31.7 °F 26.5 °F 30.02 in SW 5.3 mph 8.1 mph 81 % 0.00 in
02:55 31.7 °F 26.5 °F 30.02 in SSW 4.5 mph 6.9 mph 81 % 0.00 in
02:56 31.7 °F 26.5 °F 30.02 in SSW 4.3 mph 6.9 mph 81 % 0.00 in
02:57 31.7 °F 26.5 °F 30.02 in SW 4.8 mph 8.1 mph 81 % 0.00 in
02:58 31.7 °F 26.5 °F 30.02 in SW 6.3 mph 9.0 mph 81 % 0.00 in
02:59 31.6 °F 26.4 °F 30.02 in SW 6.8 mph 6.9 mph 81 % 0.00 in
03:01 31.6 °F 26.4 °F 30.02 in SSW 6.8 mph 9.2 mph 81 % 0.00 in
03:02 31.6 °F 26.4 °F 30.01 in WSW 6.1 mph 8.1 mph 81 % 0.00 in
03:03 31.6 °F 26.4 °F 30.01 in SSW 5.7 mph 10.4 mph 81 % 0.00 in
03:04 31.6 °F 26.4 °F 30.01 in SSW 5.1 mph 8.0 mph 81 % 0.00 in
03:08 31.6 °F 26.4 °F 30.01 in SSW 5.3 mph 7.0 mph 81 % 0.00 in
03:09 31.6 °F 26.4 °F 30.01 in SW 3.6 mph 7.0 mph 81 % 0.00 in
03:12 31.6 °F 26.4 °F 30.01 in SW 4.9 mph 7.0 mph 81 % 0.00 in
03:13 31.6 °F 26.4 °F 30.01 in SW 4.4 mph 7.0 mph 81 % 0.00 in
03:14 31.6 °F 26.4 °F 30.00 in SW 6.1 mph 6.9 mph 81 % 0.00 in
03:15 31.6 °F 26.4 °F 30.00 in SSW 6.0 mph 9.2 mph 81 % 0.00 in
03:16 31.6 °F 26.4 °F 30.00 in SSW 4.4 mph 6.0 mph 81 % 0.00 in
03:18 31.6 °F 26.4 °F 29.76 in SSW 3.5 mph 6.9 mph 81 % 0.00 in
03:20 31.6 °F 26.4 °F 30.00 in SW 6.0 mph 9.2 mph 81 % 0.00 in
03:21 31.6 °F 26.4 °F 30.00 in SSW 6.0 mph 9.0 mph 81 % 0.00 in
03:22 31.6 °F 26.4 °F 30.01 in WSW 4.4 mph 8.1 mph 81 % 0.00 in
03:23 31.6 °F 26.4 °F 30.01 in SSW 4.1 mph 6.9 mph 81 % 0.00 in
03:24 31.6 °F 26.4 °F 30.00 in SW 5.2 mph 6.9 mph 81 % 0.00 in
03:25 31.6 °F 26.4 °F 29.76 in WSW 6.2 mph 12.7 mph 81 % 0.00 in
03:26 31.6 °F 26.4 °F 30.00 in SSW 6.0 mph 13.0 mph 81 % 0.00 in
03:27 31.6 °F 26.4 °F 30.00 in SSW 6.0 mph 12.7 mph 81 % 0.00 in
03:30 31.7 °F 26.5 °F 30.01 in SSW 4.9 mph 7.0 mph 81 % 0.00 in
03:33 31.7 °F 26.5 °F 30.01 in SSW 5.2 mph 6.9 mph 81 % 0.00 in
03:37 31.7 °F 26.5 °F 30.01 in SSW 3.0 mph 4.0 mph 81 % 0.00 in
03:38 31.7 °F 26.5 °F 30.01 in SSW 3.4 mph 7.0 mph 81 % 0.00 in
03:39 31.7 °F 26.5 °F 30.01 in SSW 4.8 mph 9.2 mph 81 % 0.00 in
03:40 31.7 °F 26.5 °F 30.01 in SSW 3.4 mph 9.2 mph 81 % 0.00 in
03:41 31.7 °F 26.5 °F 30.01 in SSW 3.0 mph 9.0 mph 81 % 0.00 in
03:42 31.7 °F 26.5 °F 30.01 in WSW 4.6 mph 7.0 mph 81 % 0.00 in
03:43 31.7 °F 26.5 °F 29.77 in SW 4.6 mph 6.9 mph 81 % 0.00 in
03:44 31.7 °F 26.5 °F 30.01 in SSW 4.8 mph 6.9 mph 81 % 0.00 in
03:45 31.7 °F 26.5 °F 30.01 in SW 5.9 mph 8.1 mph 81 % 0.00 in
03:46 31.7 °F 26.5 °F 30.01 in SW 3.3 mph 10.4 mph 81 % 0.00 in
03:48 31.7 °F 26.5 °F 30.01 in SW 3.3 mph 6.9 mph 81 % 0.00 in
03:49 31.7 °F 26.5 °F 30.02 in WSW 3.8 mph 5.8 mph 81 % 0.00 in
03:50 31.7 °F 26.5 °F 30.01 in WSW 5.4 mph 8.0 mph 81 % 0.00 in
03:51 31.7 °F 26.5 °F 30.01 in SSW 4.7 mph 8.1 mph 81 % 0.00 in
03:52 31.7 °F 26.5 °F 30.01 in SSW 4.0 mph 6.9 mph 81 % 0.00 in
03:53 31.7 °F 26.5 °F 30.01 in SSW 5.0 mph 6.9 mph 81 % 0.00 in
03:54 31.7 °F 26.5 °F 30.01 in SW 4.1 mph 8.1 mph 81 % 0.00 in
03:55 31.7 °F 26.5 °F 30.01 in SW 4.9 mph 8.1 mph 81 % 0.00 in
03:56 31.7 °F 26.5 °F 30.01 in SSW 3.5 mph 7.0 mph 81 % 0.00 in
03:57 31.7 °F 26.5 °F 30.02 in WSW 3.8 mph 7.0 mph 81 % 0.00 in
03:58 31.7 °F 26.5 °F 30.01 in SSW 5.4 mph 11.5 mph 81 % 0.00 in
04:00 31.7 °F 26.5 °F 30.02 in SSW 3.3 mph 5.0 mph 81 % 0.00 in
04:01 31.7 °F 26.5 °F 30.02 in SSW 3.5 mph 4.6 mph 81 % 0.00 in
04:02 31.7 °F 26.5 °F 30.02 in SSW 3.3 mph 9.0 mph 81 % 0.00 in
04:04 31.8 °F 26.6 °F 30.02 in SW 5.3 mph 8.0 mph 81 % 0.00 in
04:05 31.7 °F 26.5 °F 30.02 in SW 3.7 mph 5.8 mph 81 % 0.00 in
04:06 31.8 °F 26.6 °F 30.02 in SW 5.0 mph 12.0 mph 81 % 0.00 in
04:07 31.8 °F 26.9 °F 30.02 in SSW 4.0 mph 6.0 mph 82 % 0.00 in
04:08 31.8 °F 26.9 °F 30.02 in WSW 5.5 mph 9.2 mph 82 % 0.00 in
04:09 31.9 °F 27.0 °F 29.77 in SSW 4.3 mph 8.1 mph 82 % 0.00 in
04:10 31.9 °F 27.0 °F 30.02 in SW 4.2 mph 8.1 mph 82 % 0.00 in
04:13 31.9 °F 27.0 °F 29.78 in SW 6.2 mph 9.0 mph 82 % 0.00 in
04:14 32.0 °F 27.1 °F 29.78 in SSW 4.8 mph 9.2 mph 82 % 0.00 in
04:15 32.0 °F 27.1 °F 30.02 in SW 5.0 mph 9.2 mph 82 % 0.00 in
04:16 32.0 °F 27.1 °F 30.02 in SSW 3.9 mph 7.0 mph 82 % 0.00 in
04:20 32.2 °F 27.3 °F 30.02 in SSW 5.6 mph 11.5 mph 82 % 0.00 in
04:21 32.2 °F 27.3 °F 30.02 in SW 5.9 mph 11.5 mph 82 % 0.00 in
04:22 32.2 °F 27.3 °F 30.02 in SSW 4.7 mph 6.9 mph 82 % 0.00 in
04:23 32.3 °F 27.4 °F 30.02 in WSW 5.1 mph 8.1 mph 82 % 0.00 in
04:26 32.3 °F 27.4 °F 30.03 in SW 3.3 mph 8.1 mph 82 % 0.00 in
04:28 32.3 °F 27.4 °F 30.02 in SW 3.1 mph 5.8 mph 82 % 0.00 in
04:30 32.4 °F 27.5 °F 30.03 in SW 6.8 mph 11.5 mph 82 % 0.00 in
04:31 32.4 °F 27.5 °F 30.03 in SSW 3.3 mph 11.5 mph 82 % 0.00 in
04:32 32.4 °F 27.5 °F 30.03 in SW 4.2 mph 11.5 mph 82 % 0.00 in
04:34 32.5 °F 27.6 °F 29.78 in SSW 3.0 mph 5.8 mph 82 % 0.00 in
04:35 32.5 °F 27.6 °F 30.03 in South 3.6 mph 6.0 mph 82 % 0.00 in
04:38 32.6 °F 27.7 °F 30.03 in SSW 2.6 mph 8.1 mph 82 % 0.00 in
04:40 32.6 °F 27.7 °F 30.03 in West 4.6 mph 7.0 mph 82 % 0.00 in
04:41 32.6 °F 27.7 °F 30.03 in SW 4.8 mph 8.1 mph 82 % 0.00 in
04:42 32.6 °F 27.7 °F 30.03 in SW 4.4 mph 8.1 mph 82 % 0.00 in
04:43 32.6 °F 27.7 °F 30.03 in West 3.5 mph 8.1 mph 82 % 0.00 in
04:44 32.7 °F 27.8 °F 30.03 in SW 4.1 mph 8.0 mph 82 % 0.00 in
04:45 32.7 °F 27.8 °F 30.03 in SSW 4.6 mph 6.9 mph 82 % 0.00 in
04:48 32.8 °F 27.9 °F 30.03 in WSW 2.8 mph 9.2 mph 82 % 0.00 in
04:53 32.9 °F 28.0 °F 30.03 in WSW 1.9 mph 4.6 mph 82 % 0.00 in
04:54 33.0 °F 28.4 °F 29.79 in SW 7.8 mph 13.0 mph 83 % 0.00 in
04:56 33.1 °F 28.5 °F 30.03 in SW 4.5 mph 12.7 mph 83 % 0.00 in
04:58 33.1 °F 28.5 °F 30.03 in SW 5.7 mph 11.5 mph 83 % 0.00 in
04:59 33.2 °F 28.3 °F 30.03 in WSW 2.7 mph 6.9 mph 82 % 0.00 in
05:02 33.3 °F 28.4 °F 30.04 in SW 4.5 mph 8.1 mph 82 % 0.00 in
05:03 33.3 °F 28.4 °F 30.03 in SW 3.8 mph 8.1 mph 82 % 0.00 in
05:04 33.4 °F 28.5 °F 30.04 in West 4.3 mph 7.0 mph 82 % 0.00 in
05:08 33.5 °F 28.6 °F 30.04 in WSW 5.0 mph 10.4 mph 82 % 0.00 in
05:09 33.6 °F 28.7 °F 30.04 in SSE 6.2 mph 9.2 mph 82 % 0.00 in
05:10 33.6 °F 28.7 °F 30.04 in South 4.5 mph 9.2 mph 82 % 0.00 in
05:11 33.6 °F 28.7 °F 30.04 in SW 5.0 mph 14.0 mph 82 % 0.00 in
05:12 33.7 °F 28.8 °F 30.04 in WSW 4.8 mph 13.8 mph 82 % 0.00 in
05:14 33.8 °F 28.9 °F 30.04 in WSW 6.7 mph 15.0 mph 82 % 0.00 in
05:15 33.8 °F 28.9 °F 30.04 in SW 9.1 mph 15.0 mph 82 % 0.00 in
05:16 33.9 °F 29.0 °F 30.04 in SW 7.0 mph 10.0 mph 82 % 0.00 in
05:17 33.9 °F 29.0 °F 30.04 in WSW 6.7 mph 6.9 mph 82 % 0.00 in
05:18 33.9 °F 29.0 °F 30.04 in SW 5.1 mph 10.4 mph 82 % 0.00 in
05:19 33.9 °F 29.0 °F 30.04 in SSW 4.8 mph 9.2 mph 82 % 0.00 in
05:20 34.0 °F 28.8 °F 30.04 in WSW 6.3 mph 11.5 mph 81 % 0.00 in
05:22 34.0 °F 28.8 °F 30.05 in WSW 5.5 mph 11.5 mph 81 % 0.00 in
05:23 34.1 °F 28.9 °F 30.04 in SW 3.8 mph 10.4 mph 81 % 0.00 in
05:24 34.1 °F 28.9 °F 30.05 in WSW 2.9 mph 8.1 mph 81 % 0.00 in
05:25 34.1 °F 28.9 °F 29.80 in SW 3.0 mph 8.1 mph 81 % 0.00 in
05:26 34.1 °F 28.9 °F 30.04 in WSW 2.4 mph 6.9 mph 81 % 0.00 in
05:27 34.1 °F 28.9 °F 30.04 in SSW 4.9 mph 7.0 mph 81 % 0.00 in
05:28 34.1 °F 28.9 °F 30.05 in WSW 4.4 mph 6.9 mph 81 % 0.00 in
05:29 34.1 °F 28.9 °F 30.05 in SW 4.4 mph 10.0 mph 81 % 0.00 in
05:30 34.1 °F 28.9 °F 30.05 in WSW 4.9 mph 11.5 mph 81 % 0.00 in
05:32 34.1 °F 28.9 °F 30.05 in WSW 6.3 mph 8.1 mph 81 % 0.00 in
05:34 34.1 °F 28.9 °F 30.05 in SW 5.2 mph 10.0 mph 81 % 0.00 in
05:35 34.2 °F 29.0 °F 30.04 in WSW 5.6 mph 11.5 mph 81 % 0.00 in
05:36 34.2 °F 29.0 °F 30.05 in SSW 4.4 mph 10.4 mph 81 % 0.00 in
05:37 34.2 °F 29.0 °F 30.05 in SSW 5.6 mph 10.4 mph 81 % 0.00 in
05:38 34.2 °F 29.0 °F 30.04 in WSW 5.2 mph 8.1 mph 81 % 0.00 in
05:39 34.2 °F 29.0 °F 30.04 in South 2.5 mph 11.5 mph 81 % 0.00 in
05:41 34.2 °F 28.7 °F 30.04 in SW 3.4 mph 8.1 mph 80 % 0.00 in
05:42 34.2 °F 28.7 °F 30.04 in SSW 3.2 mph 8.1 mph 80 % 0.00 in
05:43 34.2 °F 28.7 °F 30.05 in SW 6.0 mph 8.0 mph 80 % 0.00 in
05:44 34.2 °F 28.7 °F 30.05 in WSW 5.9 mph 10.4 mph 80 % 0.00 in
05:47 34.2 °F 28.7 °F 30.04 in WSW 3.6 mph 10.4 mph 80 % 0.00 in
05:49 34.2 °F 28.7 °F 30.05 in WSW 4.4 mph 10.4 mph 80 % 0.00 in
05:50 34.2 °F 28.7 °F 29.80 in WSW 3.3 mph 10.4 mph 80 % 0.00 in
05:51 34.2 °F 28.7 °F 30.05 in SW 6.2 mph 8.1 mph 80 % 0.00 in
05:52 34.2 °F 28.7 °F 30.05 in SSW 5.2 mph 11.5 mph 80 % 0.00 in
05:53 34.2 °F 28.7 °F 30.05 in SW 4.2 mph 11.5 mph 80 % 0.00 in
05:54 34.2 °F 28.7 °F 30.05 in SW 3.6 mph 11.5 mph 80 % 0.00 in
05:55 34.1 °F 28.6 °F 30.05 in SW 3.3 mph 6.9 mph 80 % 0.00 in
05:57 34.1 °F 28.6 °F 30.05 in South 4.7 mph 7.0 mph 80 % 0.00 in
05:58 34.1 °F 28.6 °F 30.04 in WSW 4.5 mph 6.9 mph 80 % 0.00 in
05:59 34.1 °F 28.6 °F 29.80 in SSW 4.5 mph 6.9 mph 80 % 0.00 in
06:00 34.1 °F 28.6 °F 30.05 in SW 3.8 mph 8.1 mph 80 % 0.00 in
06:02 34.0 °F 28.5 °F 30.05 in SSW 3.1 mph 8.1 mph 80 % 0.00 in
06:03 34.0 °F 28.5 °F 30.05 in SSW 3.3 mph 6.0 mph 80 % 0.00 in
06:04 34.0 °F 28.5 °F 30.05 in SSW 4.8 mph 10.4 mph 80 % 0.00 in
06:06 33.9 °F 28.4 °F 30.05 in SW 5.2 mph 8.1 mph 80 % 0.00 in
06:07 33.9 °F 28.4 °F 29.80 in SSW 4.9 mph 5.0 mph 80 % 0.00 in
06:09 33.9 °F 28.4 °F 30.05 in WSW 2.4 mph 9.2 mph 80 % 0.00 in
06:11 33.9 °F 28.4 °F 30.05 in SSW 2.0 mph 9.0 mph 80 % 0.00 in
06:12 33.9 °F 28.4 °F 30.05 in SW 4.1 mph 7.0 mph 80 % 0.00 in
06:13 33.8 °F 28.3 °F 30.06 in SW 4.8 mph 8.0 mph 80 % 0.00 in
06:15 33.8 °F 28.3 °F 30.06 in SSW 4.4 mph 10.4 mph 80 % 0.00 in
06:18 33.7 °F 28.2 °F 30.06 in SSW 3.9 mph 10.4 mph 80 % 0.00 in
06:19 33.7 °F 28.2 °F 30.06 in WSW 3.6 mph 8.1 mph 80 % 0.00 in
06:20 33.7 °F 28.2 °F 30.06 in SW 3.9 mph 8.1 mph 80 % 0.00 in
06:21 33.7 °F 28.2 °F 30.06 in SW 3.0 mph 10.0 mph 80 % 0.00 in
06:22 33.7 °F 28.2 °F 30.06 in SW 4.8 mph 10.4 mph 80 % 0.00 in
06:25 33.6 °F 28.1 °F 30.06 in SSW 4.2 mph 8.1 mph 80 % 0.00 in
06:26 33.6 °F 28.1 °F 30.06 in SW 4.1 mph 5.8 mph 80 % 0.00 in
06:27 33.6 °F 28.1 °F 29.82 in WSW 5.3 mph 9.0 mph 80 % 0.00 in
06:28 33.6 °F 28.4 °F 30.07 in SSW 6.8 mph 10.0 mph 81 % 0.00 in
06:30 33.6 °F 28.4 °F 30.06 in SW 3.6 mph 6.9 mph 81 % 0.00 in
06:31 33.6 °F 28.4 °F 30.07 in WSW 4.7 mph 9.2 mph 81 % 0.00 in
06:32 33.6 °F 28.4 °F 30.07 in WSW 5.0 mph 8.1 mph 81 % 0.00 in
06:34 33.6 °F 28.4 °F 30.07 in WSW 4.7 mph 11.5 mph 81 % 0.00 in
06:35 33.6 °F 28.4 °F 30.07 in SSW 2.6 mph 9.2 mph 81 % 0.00 in
06:36 33.6 °F 28.4 °F 30.07 in West 4.0 mph 4.6 mph 81 % 0.00 in
06:38 33.6 °F 28.4 °F 30.07 in South 6.3 mph 11.5 mph 81 % 0.00 in
06:39 33.6 °F 28.4 °F 30.07 in SW 3.5 mph 6.9 mph 81 % 0.00 in
06:41 33.6 °F 28.4 °F 30.07 in WSW 4.8 mph 8.0 mph 81 % 0.00 in
06:45 33.6 °F 28.4 °F 29.83 in SW 5.7 mph 11.5 mph 81 % 0.00 in
06:46 33.6 °F 28.4 °F 30.08 in SW 2.0 mph 8.1 mph 81 % 0.00 in
06:47 33.6 °F 28.4 °F 30.07 in SW 3.5 mph 6.0 mph 81 % 0.00 in
06:48 33.6 °F 28.4 °F 30.08 in WSW 4.6 mph 7.0 mph 81 % 0.00 in
06:50 33.6 °F 28.4 °F 30.08 in WSW 4.2 mph 6.9 mph 81 % 0.00 in
06:51 33.6 °F 28.4 °F 30.08 in SW 3.2 mph 5.8 mph 81 % 0.00 in
06:52 33.6 °F 28.4 °F 30.08 in WSW 4.5 mph 9.0 mph 81 % 0.00 in
06:53 33.6 °F 28.4 °F 30.08 in SW 4.8 mph 8.1 mph 81 % 0.00 in
06:54 33.6 °F 28.4 °F 30.08 in SW 5.4 mph 10.4 mph 81 % 0.00 in
06:56 33.6 °F 28.4 °F 30.08 in SW 4.4 mph 10.4 mph 81 % 0.00 in
06:57 33.5 °F 28.3 °F 30.08 in SSW 4.4 mph 8.1 mph 81 % 0.00 in
06:58 33.6 °F 28.4 °F 30.08 in SW 4.1 mph 5.8 mph 81 % 0.00 in
06:59 33.6 °F 28.4 °F 30.08 in WSW 3.7 mph 9.0 mph 81 % 0.00 in
07:00 33.5 °F 28.3 °F 30.08 in SSW 5.1 mph 9.2 mph 81 % 0.00 in
07:02 33.5 °F 28.3 °F 30.08 in SSW 4.5 mph 6.9 mph 81 % 0.00 in
07:03 33.5 °F 28.3 °F 30.08 in SW 4.2 mph 6.9 mph 81 % 0.00 in
07:04 33.5 °F 28.3 °F 29.84 in SW 2.7 mph 6.9 mph 81 % 0.00 in
07:05 33.5 °F 28.3 °F 30.08 in WSW 5.0 mph 10.4 mph 81 % 0.00 in
07:06 33.5 °F 28.3 °F 30.08 in WSW 6.2 mph 10.4 mph 81 % 0.00 in
07:08 33.5 °F 28.3 °F 30.08 in WSW 5.2 mph 11.5 mph 81 % 0.00 in
07:09 33.5 °F 28.3 °F 30.09 in SW 4.0 mph 7.0 mph 81 % 0.00 in
07:10 33.5 °F 28.3 °F 30.08 in WSW 3.2 mph 6.9 mph 81 % 0.00 in
07:13 33.4 °F 28.2 °F 30.08 in SSW 5.7 mph 7.0 mph 81 % 0.00 in
07:15 33.4 °F 28.2 °F 30.08 in SSW 5.3 mph 10.4 mph 81 % 0.00 in
07:17 33.4 °F 28.2 °F 30.08 in SSE 4.2 mph 5.8 mph 81 % 0.00 in
07:18 33.4 °F 28.2 °F 30.08 in SW 4.9 mph 8.1 mph 81 % 0.00 in
07:19 33.4 °F 28.2 °F 30.09 in SW 5.1 mph 7.0 mph 81 % 0.00 in
07:24 33.3 °F 28.1 °F 30.08 in South 4.2 mph 6.9 mph 81 % 0.00 in
07:25 33.3 °F 28.1 °F 30.09 in SW 3.9 mph 8.0 mph 81 % 0.00 in
07:26 33.3 °F 28.1 °F 30.08 in SSW 6.5 mph 9.2 mph 81 % 0.00 in
07:27 33.3 °F 28.1 °F 30.08 in SSW 6.9 mph 9.2 mph 81 % 0.00 in
07:28 33.3 °F 28.1 °F 30.08 in WSW 4.4 mph 5.8 mph 81 % 0.00 in
07:31 33.3 °F 28.1 °F 30.08 in SW 5.7 mph 10.4 mph 81 % 0.00 in
07:33 33.3 °F 28.1 °F 30.08 in WSW 7.3 mph 11.0 mph 81 % 0.00 in
07:37 33.3 °F 28.4 °F 30.09 in SSW 5.0 mph 8.1 mph 82 % 0.00 in
07:38 33.4 °F 28.5 °F 30.09 in West 3.8 mph 8.1 mph 82 % 0.00 in
07:39 33.4 °F 28.5 °F 30.09 in WSW 2.9 mph 5.8 mph 82 % 0.00 in
07:40 33.4 °F 28.5 °F 30.09 in SW 5.9 mph 10.4 mph 82 % 0.00 in
07:41 33.4 °F 28.5 °F 30.09 in WSW 4.7 mph 8.1 mph 82 % 0.00 in
07:42 33.4 °F 28.2 °F 30.09 in SW 4.5 mph 8.1 mph 81 % 0.00 in
07:43 33.4 °F 28.2 °F 30.09 in SW 4.0 mph 8.1 mph 81 % 0.00 in
07:44 33.4 °F 28.2 °F 30.09 in West 3.0 mph 7.0 mph 81 % 0.00 in
07:45 33.5 °F 28.3 °F 30.09 in SW 4.4 mph 10.4 mph 81 % 0.00 in
07:46 33.5 °F 28.3 °F 30.10 in SW 5.2 mph 8.1 mph 81 % 0.00 in
07:47 33.5 °F 28.3 °F 30.10 in SSW 3.3 mph 8.1 mph 81 % 0.00 in
07:48 33.5 °F 28.3 °F 30.09 in SW 4.0 mph 9.2 mph 81 % 0.00 in
07:51 33.5 °F 28.3 °F 30.10 in SW 4.2 mph 7.0 mph 81 % 0.00 in
07:52 33.6 °F 28.4 °F 30.10 in West 4.4 mph 7.0 mph 81 % 0.00 in
07:53 33.6 °F 28.4 °F 30.09 in SSW 4.1 mph 6.9 mph 81 % 0.00 in
07:55 33.6 °F 28.4 °F 30.10 in WSW 4.1 mph 9.2 mph 81 % 0.00 in
07:56 33.6 °F 28.4 °F 30.10 in SW 3.4 mph 4.6 mph 81 % 0.00 in
07:58 33.7 °F 28.5 °F 30.10 in WSW 3.8 mph 8.1 mph 81 % 0.00 in
07:59 33.7 °F 28.5 °F 30.10 in WSW 3.6 mph 8.1 mph 81 % 0.00 in
08:00 33.7 °F 28.5 °F 30.10 in WSW 6.0 mph 10.0 mph 81 % 0.00 in
08:01 33.8 °F 28.6 °F 30.10 in SW 4.4 mph 10.4 mph 81 % 0.00 in
08:02 33.8 °F 28.6 °F 30.10 in SW 4.0 mph 8.1 mph 81 % 0.00 in
08:03 33.8 °F 28.6 °F 30.10 in SW 3.3 mph 4.6 mph 81 % 0.00 in
08:07 33.9 °F 28.7 °F 30.10 in SW 3.9 mph 10.4 mph 81 % 0.00 in
08:12 33.9 °F 28.7 °F 30.10 in SW 4.2 mph 7.0 mph 81 % 0.00 in
08:13 33.9 °F 28.7 °F 30.10 in WSW 5.4 mph 6.9 mph 81 % 0.00 in
08:14 34.0 °F 28.8 °F 30.10 in SSW 4.7 mph 8.1 mph 81 % 0.00 in
08:15 34.0 °F 28.8 °F 30.10 in SW 4.9 mph 9.2 mph 81 % 0.00 in
08:16 34.0 °F 28.8 °F 30.10 in SW 4.6 mph 8.1 mph 81 % 0.00 in
08:17 34.0 °F 28.8 °F 30.10 in SSW 4.8 mph 8.1 mph 81 % 0.00 in
08:18 34.1 °F 28.9 °F 30.11 in SW 3.6 mph 5.8 mph 81 % 0.00 in
08:19 34.0 °F 28.8 °F 30.10 in South 4.6 mph 8.0 mph 81 % 0.00 in
08:20 34.1 °F 28.9 °F 30.11 in WSW 6.3 mph 8.1 mph 81 % 0.00 in
08:21 34.1 °F 28.9 °F 29.86 in SW 6.0 mph 10.0 mph 81 % 0.00 in
08:22 34.1 °F 28.9 °F 30.11 in WSW 5.4 mph 10.4 mph 81 % 0.00 in
08:23 34.2 °F 28.7 °F 30.11 in SW 3.9 mph 8.1 mph 80 % 0.00 in
08:25 34.2 °F 28.7 °F 30.11 in SW 4.9 mph 6.9 mph 80 % 0.00 in
08:26 34.2 °F 28.7 °F 30.11 in West 3.5 mph 5.8 mph 80 % 0.00 in
08:27 34.3 °F 28.8 °F 30.11 in South 6.1 mph 9.0 mph 80 % 0.00 in
08:28 34.3 °F 28.8 °F 30.11 in WSW 6.8 mph 10.0 mph 80 % 0.00 in
08:29 34.3 °F 28.8 °F 29.86 in WSW 6.8 mph 12.7 mph 80 % 0.00 in
08:30 34.3 °F 28.8 °F 29.87 in SW 6.1 mph 12.7 mph 80 % 0.00 in
08:31 34.4 °F 28.9 °F 30.12 in WSW 6.6 mph 9.2 mph 80 % 0.00 in
08:34 34.5 °F 29.0 °F 30.11 in SW 5.6 mph 11.5 mph 80 % 0.00 in
08:35 34.5 °F 29.0 °F 30.12 in South 6.3 mph 9.0 mph 80 % 0.00 in
08:37 34.6 °F 29.1 °F 30.12 in WSW 9.1 mph 15.0 mph 80 % 0.00 in
08:38 34.7 °F 29.2 °F 29.87 in WSW 7.2 mph 11.5 mph 80 % 0.00 in
08:39 34.7 °F 28.9 °F 30.12 in WSW 5.2 mph 11.5 mph 79 % 0.00 in
08:40 34.8 °F 29.3 °F 30.12 in SSW 2.1 mph 5.8 mph 80 % 0.00 in
08:41 34.8 °F 29.2 °F 30.12 in SW 2.0 mph 12.0 mph 80 % 0.00 in
08:43 34.9 °F 29.0 °F 29.87 in SW 2.9 mph 8.0 mph 79 % 0.00 in
08:44 34.9 °F 29.0 °F 30.12 in WSW 4.3 mph 9.2 mph 79 % 0.00 in
08:45 35.0 °F 29.1 °F 30.12 in SW 4.4 mph 9.2 mph 79 % 0.00 in
08:46 35.0 °F 29.1 °F 30.12 in West 4.6 mph 6.9 mph 79 % 0.00 in
08:47 35.0 °F 29.1 °F 30.12 in WSW 4.1 mph 9.2 mph 79 % 0.00 in
08:51 35.2 °F 29.3 °F 30.12 in SW 5.9 mph 10.4 mph 79 % 0.00 in
08:52 35.2 °F 29.3 °F 30.12 in WSW 5.6 mph 10.4 mph 79 % 0.00 in
08:53 35.3 °F 29.4 °F 30.12 in SW 6.5 mph 9.0 mph 79 % 0.00 in
08:56 35.5 °F 29.3 °F 30.13 in WSW 6.2 mph 9.2 mph 78 % 0.00 in
08:57 35.5 °F 29.3 °F 30.13 in WSW 6.5 mph 9.2 mph 78 % 0.00 in
08:58 35.6 °F 29.4 °F 30.13 in SW 2.5 mph 10.4 mph 78 % 0.00 in
08:59 35.6 °F 29.4 °F 30.13 in SW 5.3 mph 9.2 mph 78 % 0.00 in
09:00 35.7 °F 29.5 °F 30.13 in SW 4.5 mph 9.2 mph 78 % 0.00 in
09:02 35.8 °F 29.6 °F 30.13 in West 5.1 mph 8.1 mph 78 % 0.00 in
09:03 35.9 °F 29.4 °F 30.13 in SSW 3.2 mph 8.1 mph 77 % 0.00 in
09:04 35.9 °F 29.4 °F 30.13 in WSW 4.9 mph 11.0 mph 77 % 0.00 in
09:07 36.1 °F 29.6 °F 30.14 in SW 6.0 mph 9.2 mph 77 % 0.00 in
09:09 36.2 °F 29.7 °F 29.89 in WSW 4.3 mph 9.2 mph 77 % 0.00 in
09:10 36.2 °F 29.7 °F 30.13 in WSW 3.4 mph 9.2 mph 77 % 0.00 in
09:12 36.3 °F 29.8 °F 30.14 in SW 4.1 mph 11.5 mph 77 % 0.00 in
09:15 36.5 °F 29.7 °F 30.14 in West 4.9 mph 11.5 mph 76 % 0.00 in
09:17 36.6 °F 29.7 °F 30.14 in SW 7.7 mph 11.5 mph 76 % 0.00 in
09:18 36.7 °F 29.8 °F 30.14 in SSW 2.8 mph 7.0 mph 76 % 0.00 in
09:20 36.9 °F 29.7 °F 30.14 in West 5.7 mph 10.4 mph 75 % 0.00 in
09:21 36.9 °F 29.7 °F 29.90 in West 5.0 mph 10.0 mph 75 % 0.00 in
09:25 37.2 °F 29.7 °F 30.14 in WSW 7.5 mph 11.5 mph 74 % 0.00 in
09:26 37.2 °F 29.7 °F 30.14 in WSW 7.0 mph 12.0 mph 74 % 0.00 in
09:28 37.4 °F 29.9 °F 30.14 in SW 5.4 mph 11.5 mph 74 % 0.00 in
09:29 37.5 °F 30.0 °F 30.14 in WSW 7.8 mph 15.0 mph 74 % 0.00 in
09:30 37.5 °F 29.6 °F 30.14 in West 9.1 mph 15.0 mph 73 % 0.00 in
09:31 37.5 °F 29.6 °F 30.14 in WSW 8.0 mph 15.0 mph 73 % 0.00 in
09:32 37.7 °F 29.8 °F 30.14 in WSW 5.4 mph 13.8 mph 73 % 0.00 in
09:33 37.7 °F 29.8 °F 30.14 in WSW 5.9 mph 13.8 mph 73 % 0.00 in
09:34 37.8 °F 29.9 °F 30.14 in SW 5.4 mph 11.5 mph 73 % 0.00 in
09:35 37.8 °F 29.9 °F 30.14 in SSW 7.1 mph 12.7 mph 73 % 0.00 in
09:38 38.0 °F 30.1 °F 30.14 in SW 4.9 mph 9.0 mph 73 % 0.00 in
09:39 38.0 °F 29.8 °F 29.90 in SW 6.1 mph 12.0 mph 72 % 0.00 in
09:40 38.0 °F 29.8 °F 30.14 in WSW 7.1 mph 11.5 mph 72 % 0.00 in
09:41 38.1 °F 29.9 °F 30.14 in WSW 7.6 mph 11.5 mph 72 % 0.00 in
09:42 38.2 °F 30.0 °F 30.14 in West 8.2 mph 12.0 mph 72 % 0.00 in
09:43 38.2 °F 30.0 °F 30.14 in WSW 7.0 mph 11.5 mph 72 % 0.00 in
09:45 38.3 °F 30.1 °F 29.90 in West 5.7 mph 11.5 mph 72 % 0.00 in
09:48 38.5 °F 29.9 °F 30.14 in West 7.7 mph 11.5 mph 71 % 0.00 in
09:50 38.5 °F 29.9 °F 30.15 in SW 7.0 mph 15.0 mph 71 % 0.00 in
09:51 38.6 °F 30.0 °F 30.14 in SSW 6.9 mph 15.0 mph 71 % 0.00 in
09:52 38.6 °F 30.0 °F 30.14 in West 4.0 mph 11.5 mph 71 % 0.00 in
09:53 38.7 °F 30.1 °F 30.14 in WSW 6.4 mph 8.1 mph 71 % 0.00 in
09:56 38.8 °F 29.8 °F 30.15 in West 7.9 mph 19.0 mph 70 % 0.00 in
10:03 39.3 °F 29.6 °F 30.14 in WSW 9.2 mph 19.6 mph 68 % 0.00 in
10:04 39.3 °F 29.6 °F 29.90 in West 8.1 mph 13.0 mph 68 % 0.00 in
10:05 39.3 °F 29.6 °F 30.14 in West 7.9 mph 13.0 mph 68 % 0.00 in
10:06 39.4 °F 29.7 °F 30.14 in West 10.4 mph 14.0 mph 68 % 0.00 in
10:09 39.5 °F 29.4 °F 30.14 in West 7.9 mph 16.1 mph 67 % 0.00 in
10:10 39.6 °F 29.5 °F 30.14 in West 5.0 mph 16.1 mph 67 % 0.00 in
10:11 39.6 °F 29.5 °F 30.14 in WNW 8.1 mph 15.0 mph 67 % 0.00 in
10:12 39.7 °F 29.6 °F 30.14 in WNW 6.6 mph 11.5 mph 67 % 0.00 in
10:13 39.7 °F 29.6 °F 30.14 in WNW 8.9 mph 11.5 mph 67 % 0.00 in
10:14 39.8 °F 29.7 °F 30.14 in SW 3.3 mph 11.5 mph 67 % 0.00 in
10:15 39.8 °F 29.7 °F 30.14 in SSW 8.7 mph 15.0 mph 67 % 0.00 in
10:16 39.8 °F 29.7 °F 30.14 in West 8.8 mph 10.0 mph 67 % 0.00 in
10:18 40.0 °F 29.9 °F 30.14 in WSW 5.0 mph 9.0 mph 67 % 0.00 in
10:19 40.0 °F 29.9 °F 29.90 in WNW 5.8 mph 11.5 mph 67 % 0.00 in
10:20 40.0 °F 29.9 °F 30.14 in WNW 4.3 mph 10.4 mph 67 % 0.00 in
10:22 40.1 °F 30.0 °F 30.14 in WSW 3.5 mph 9.2 mph 67 % 0.00 in
10:23 40.2 °F 30.1 °F 30.14 in West 6.8 mph 15.0 mph 67 % 0.00 in
10:24 40.2 °F 29.7 °F 30.14 in NW 7.8 mph 15.0 mph 66 % 0.00 in
10:27 40.4 °F 29.9 °F 30.14 in West 5.9 mph 13.8 mph 66 % 0.00 in
10:28 40.4 °F 29.9 °F 30.14 in West 3.1 mph 10.4 mph 66 % 0.00 in
10:30 40.4 °F 29.9 °F 30.14 in WNW 6.5 mph 15.0 mph 66 % 0.00 in
10:31 40.4 °F 29.9 °F 30.14 in West 5.0 mph 15.0 mph 66 % 0.00 in
10:33 40.5 °F 30.4 °F 30.14 in West 4.9 mph 9.2 mph 67 % 0.00 in
10:34 40.5 °F 30.4 °F 30.14 in WSW 4.6 mph 9.2 mph 67 % 0.00 in
10:35 40.5 °F 30.4 °F 29.90 in WNW 5.2 mph 10.0 mph 67 % 0.00 in
10:36 40.6 °F 30.5 °F 30.14 in WNW 5.0 mph 11.5 mph 67 % 0.00 in
10:37 40.6 °F 30.5 °F 30.14 in WSW 5.4 mph 11.5 mph 67 % 0.00 in
10:38 40.6 °F 30.5 °F 30.14 in WSW 5.9 mph 10.4 mph 67 % 0.00 in
10:44 40.5 °F 30.4 °F 30.14 in West 7.5 mph 12.0 mph 67 % 0.00 in
10:45 40.5 °F 30.4 °F 30.14 in WSW 7.2 mph 14.0 mph 67 % 0.00 in
10:48 40.5 °F 30.4 °F 30.14 in WSW 6.6 mph 12.7 mph 67 % 0.00 in
10:50 40.5 °F 30.4 °F 30.14 in West 4.8 mph 13.8 mph 67 % 0.00 in
10:51 40.4 °F 30.3 °F 30.14 in West 6.9 mph 10.4 mph 67 % 0.00 in
10:54 40.5 °F 30.4 °F 30.14 in NW 7.2 mph 10.0 mph 67 % 0.00 in
10:55 40.5 °F 30.4 °F 30.14 in NW 7.1 mph 12.7 mph 67 % 0.00 in
10:56 40.5 °F 30.4 °F 30.14 in WSW 4.8 mph 11.5 mph 67 % 0.00 in
10:57 40.5 °F 30.4 °F 29.90 in WSW 7.2 mph 15.0 mph 67 % 0.00 in
10:58 40.5 °F 30.4 °F 30.14 in WSW 4.4 mph 11.5 mph 67 % 0.00 in
11:00 40.5 °F 30.4 °F 30.14 in WNW 3.8 mph 6.9 mph 67 % 0.00 in
11:01 40.5 °F 30.4 °F 30.14 in NW 3.8 mph 6.0 mph 67 % 0.00 in
11:02 40.5 °F 30.4 °F 30.14 in NW 3.3 mph 10.0 mph 67 % 0.00 in
11:03 40.6 °F 30.5 °F 30.14 in NW 3.7 mph 10.4 mph 67 % 0.00 in
11:04 40.5 °F 30.4 °F 30.14 in WNW 3.2 mph 8.1 mph 67 % 0.00 in
11:05 40.6 °F 30.5 °F 30.14 in West 1.4 mph 8.1 mph 67 % 0.00 in
11:06 40.6 °F 30.5 °F 30.14 in WSW 4.2 mph 10.4 mph 67 % 0.00 in
11:09 40.6 °F 30.5 °F 29.90 in WSW 4.8 mph 10.4 mph 67 % 0.00 in
11:10 40.6 °F 30.1 °F 30.14 in West 8.1 mph 15.0 mph 66 % 0.00 in
11:11 40.6 °F 30.1 °F 30.14 in WSW 7.9 mph 11.5 mph 66 % 0.00 in
11:13 40.6 °F 30.1 °F 29.89 in SW 5.6 mph 9.2 mph 66 % 0.00 in
11:14 40.6 °F 30.1 °F 30.14 in West 5.9 mph 10.4 mph 66 % 0.00 in
11:15 40.6 °F 30.1 °F 30.13 in West 4.2 mph 10.4 mph 66 % 0.00 in
11:17 40.6 °F 30.1 °F 30.14 in West 3.6 mph 8.1 mph 66 % 0.00 in
11:20 40.6 °F 30.1 °F 30.14 in West 2.7 mph 15.0 mph 66 % 0.00 in
11:21 40.6 °F 30.1 °F 30.14 in NW 3.5 mph 15.0 mph 66 % 0.00 in
11:22 40.6 °F 29.7 °F 30.13 in NW 5.6 mph 10.4 mph 65 % 0.00 in
11:24 40.5 °F 29.7 °F 30.13 in SW 5.5 mph 11.5 mph 65 % 0.00 in
11:25 40.6 °F 29.7 °F 29.89 in WSW 3.7 mph 9.0 mph 65 % 0.00 in
11:26 40.6 °F 29.7 °F 30.13 in WSW 3.7 mph 9.0 mph 65 % 0.00 in
11:29 40.5 °F 29.7 °F 29.89 in West 6.2 mph 12.0 mph 65 % 0.00 in
11:30 40.5 °F 29.7 °F 30.14 in WNW 3.9 mph 11.5 mph 65 % 0.00 in
11:31 40.5 °F 29.7 °F 29.89 in West 5.0 mph 12.0 mph 65 % 0.00 in
11:32 40.5 °F 29.7 °F 30.14 in West 4.4 mph 8.1 mph 65 % 0.00 in
11:34 40.5 °F 29.7 °F 30.13 in SW 5.1 mph 10.0 mph 65 % 0.00 in
11:36 40.5 °F 29.7 °F 30.14 in West 5.0 mph 10.0 mph 65 % 0.00 in
11:38 40.6 °F 29.7 °F 30.14 in WSW 3.4 mph 5.8 mph 65 % 0.00 in
11:39 40.6 °F 29.7 °F 30.14 in WSW 2.6 mph 5.8 mph 65 % 0.00 in
11:40 40.6 °F 29.7 °F 30.13 in SW 4.5 mph 5.0 mph 65 % 0.00 in
11:42 40.6 °F 29.7 °F 30.13 in West 8.9 mph 13.8 mph 65 % 0.00 in
11:43 40.6 °F 29.4 °F 30.13 in SW 5.4 mph 13.8 mph 64 % 0.00 in
11:44 40.6 °F 29.4 °F 30.14 in SW 3.7 mph 9.2 mph 64 % 0.00 in
11:47 40.6 °F 29.4 °F 30.13 in West 9.4 mph 14.0 mph 64 % 0.00 in
11:48 40.6 °F 29.4 °F 30.13 in WSW 6.1 mph 13.8 mph 64 % 0.00 in
11:50 40.6 °F 29.0 °F 30.13 in WNW 5.8 mph 14.0 mph 63 % 0.00 in
11:51 40.6 °F 29.4 °F 30.13 in West 5.2 mph 13.8 mph 64 % 0.00 in
11:53 40.6 °F 29.4 °F 30.13 in WNW 4.7 mph 8.1 mph 64 % 0.00 in
11:57 40.7 °F 29.1 °F 30.13 in WNW 5.2 mph 6.9 mph 63 % 0.00 in
11:58 40.7 °F 29.1 °F 30.13 in WSW 6.1 mph 6.9 mph 63 % 0.00 in
12:00 40.7 °F 29.1 °F 30.13 in West 4.6 mph 11.5 mph 63 % 0.00 in
12:02 40.7 °F 28.7 °F 30.13 in West 4.1 mph 10.4 mph 62 % 0.00 in
12:04 40.8 °F 28.8 °F 30.13 in WNW 4.1 mph 9.2 mph 62 % 0.00 in
12:06 40.8 °F 28.8 °F 29.89 in West 5.0 mph 12.0 mph 62 % 0.00 in
12:08 40.8 °F 28.8 °F 30.13 in WNW 2.0 mph 6.9 mph 62 % 0.00 in
12:09 40.9 °F 29.3 °F 30.13 in West 4.2 mph 8.0 mph 63 % 0.00 in
12:12 41.0 °F 29.0 °F 30.13 in WNW 5.2 mph 10.4 mph 62 % 0.00 in
12:14 41.1 °F 29.1 °F 30.13 in West 4.9 mph 8.1 mph 62 % 0.00 in
12:15 41.1 °F 28.7 °F 30.13 in West 3.1 mph 5.0 mph 61 % 0.00 in
12:16 41.2 °F 28.8 °F 30.13 in WSW 5.3 mph 9.2 mph 61 % 0.00 in
12:17 41.3 °F 28.9 °F 30.13 in WSW 3.6 mph 9.2 mph 61 % 0.00 in
12:20 41.5 °F 29.0 °F 30.13 in WSW 5.5 mph 10.4 mph 61 % 0.00 in
12:22 41.6 °F 28.7 °F 30.13 in WSW 5.3 mph 9.0 mph 60 % 0.00 in
12:23 41.7 °F 28.8 °F 30.13 in West 1.7 mph 9.2 mph 60 % 0.00 in
12:25 41.9 °F 29.0 °F 30.13 in West 4.8 mph 9.0 mph 60 % 0.00 in
12:27 42.0 °F 29.1 °F 30.13 in West 5.1 mph 11.5 mph 60 % 0.00 in
12:29 42.0 °F 28.7 °F 30.13 in West 4.7 mph 11.5 mph 59 % 0.00 in
12:35 42.3 °F 28.6 °F 30.13 in SSW 4.2 mph 11.5 mph 58 % 0.00 in
12:53 42.5 °F 27.5 °F 30.13 in NW 5.0 mph 14.0 mph 55 % 0.00 in
13:00 42.5 °F 27.9 °F 30.13 in WNW 4.9 mph 11.5 mph 56 % 0.00 in
13:01 42.6 °F 28.4 °F 30.13 in NW 5.0 mph 13.0 mph 57 % 0.00 in
13:04 42.6 °F 28.8 °F 29.89 in NNW 4.0 mph 11.5 mph 58 % 0.00 in
13:10 42.5 °F 27.9 °F 30.14 in WNW 2.3 mph 13.0 mph 56 % 0.00 in
13:18 42.5 °F 28.3 °F 30.14 in NNW 5.2 mph 12.0 mph 57 % 0.00 in
13:19 42.5 °F 28.3 °F 30.14 in WNW 2.6 mph 9.2 mph 57 % 0.00 in
13:20 42.5 °F 28.3 °F 30.14 in WNW 1.5 mph 9.2 mph 57 % 0.00 in
13:22 42.5 °F 28.8 °F 30.14 in WNW 6.9 mph 11.5 mph 58 % 0.00 in
13:24 42.5 °F 28.3 °F 30.14 in NW 3.4 mph 11.5 mph 57 % 0.00 in
13:26 42.5 °F 28.8 °F 30.14 in NW 8.1 mph 12.0 mph 58 % 0.00 in
13:31 42.6 °F 28.8 °F 30.13 in WNW 1.4 mph 9.2 mph 58 % 0.00 in
13:33 42.7 °F 28.9 °F 30.13 in NW 4.0 mph 9.0 mph 58 % 0.00 in
13:36 42.7 °F 28.5 °F 30.13 in WNW 7.0 mph 12.0 mph 57 % 0.00 in
13:39 42.9 °F 28.7 °F 30.14 in WNW 5.3 mph 13.0 mph 57 % 0.00 in
18:43 37.2 °F 27.2 °F 30.03 in WNW 4.1 mph 11.5 mph 67 % 0.00 in
18:55 37.3 °F 27.7 °F 30.05 in NW 4.0 mph 11.5 mph 68 % 0.00 in
19:11 36.9 °F 27.7 °F 30.30 in NW 5.0 mph 11.5 mph 69 % 0.00 in
19:12 36.9 °F 27.7 °F 30.30 in NW 4.3 mph 11.5 mph 69 % 0.00 in
19:14 36.9 °F 27.3 °F 30.30 in NW 4.7 mph 8.1 mph 68 % 0.00 in
19:16 36.9 °F 27.0 °F 30.06 in NNE 3.2 mph 8.1 mph 67 % 0.00 in
19:20 36.8 °F 26.9 °F 30.30 in North 2.2 mph 10.4 mph 67 % 0.00 in
19:23 36.9 °F 27.0 °F 30.06 in WNW 3.0 mph 8.1 mph 67 % 0.00 in
19:27 36.9 °F 27.0 °F 30.30 in NNW 3.6 mph 9.2 mph 67 % 0.00 in
19:34 36.9 °F 27.0 °F 30.31 in North 2.0 mph 8.1 mph 67 % 0.00 in
19:44 36.7 °F 27.1 °F 30.31 in NW 1.8 mph 8.1 mph 68 % 0.00 in
19:49 36.6 °F 27.4 °F 30.32 in NNW 1.4 mph 8.1 mph 69 % 0.00 in
19:56 36.5 °F 27.3 °F 30.32 in WNW 0.4 mph 8.1 mph 69 % 0.00 in
20:00 36.4 °F 27.5 °F 30.32 in NNW 3.5 mph 7.0 mph 70 % 0.00 in
20:01 36.4 °F 27.5 °F 30.32 in NNW 3.4 mph 8.0 mph 70 % 0.00 in
20:07 36.2 °F 27.7 °F 30.08 in WNW 0.8 mph 5.0 mph 71 % 0.00 in
20:17 36.0 °F 27.8 °F 30.32 in NW 1.9 mph 5.8 mph 72 % 0.00 in
20:31 35.6 °F 27.8 °F 30.32 in NW 4.1 mph 8.1 mph 73 % 0.00 in
20:34 35.5 °F 27.7 °F 30.32 in WNW 0.7 mph 3.5 mph 73 % 0.00 in
20:36 35.5 °F 27.4 °F 30.33 in NW 2.8 mph 7.0 mph 72 % 0.00 in
20:47 35.5 °F 27.4 °F 30.32 in WNW 2.9 mph 7.0 mph 72 % 0.00 in
20:51 35.5 °F 27.0 °F 30.32 in NW 2.9 mph 9.2 mph 71 % 0.00 in
21:08 35.5 °F 27.0 °F 30.33 in NNW 2.1 mph 5.0 mph 71 % 0.00 in
21:12 35.5 °F 27.0 °F 30.33 in NNW 2.5 mph 5.0 mph 71 % 0.00 in
21:18 35.5 °F 27.0 °F 30.34 in WNW 1.3 mph 5.8 mph 71 % 0.00 in
21:21 35.4 °F 26.9 °F 30.34 in NW 1.0 mph 4.0 mph 71 % 0.00 in
21:31 35.2 °F 27.4 °F 30.35 in WNW 4.9 mph 8.1 mph 73 % 0.00 in
21:45 35.0 °F 27.5 °F 30.35 in NW 0.8 mph 3.5 mph 74 % 0.00 in
21:53 34.9 °F 27.5 °F 30.35 in NW 1.0 mph 4.0 mph 74 % 0.00 in
22:21 34.1 °F 26.7 °F 30.36 in NNW 1.3 mph 2.3 mph 74 % 0.00 in
22:26 34.1 °F 27.0 °F 30.36 in North 1.4 mph 6.0 mph 75 % 0.00 in
22:47 33.8 °F 27.4 °F 30.37 in North 1.2 mph 3.5 mph 77 % 0.00 in
23:03 33.5 °F 27.1 °F 30.37 in Calm   1.2 mph 77 % 0.00 in
23:08 33.3 °F 26.9 °F 30.38 in NNE 0.4 mph 5.0 mph 77 % 0.00 in
23:14 33.1 °F 26.7 °F 30.38 in NNE 2.1 mph 3.5 mph 77 % 0.00 in
23:22 32.9 °F 26.5 °F 30.38 in Calm   4.0 mph 77 % 0.00 in
23:27 32.8 °F 26.4 °F 30.38 in NNE 0.4 mph 2.3 mph 77 % 0.00 in
23:30 32.8 °F 26.4 °F 30.13 in NNE 1.1 mph 3.5 mph 77 % 0.00 in
23:42 32.6 °F 26.2 °F 30.38 in NNE 0.6 mph 3.5 mph 77 % 0.00 in
Crab Meadow Weather
Compliments of Weather Underground - 4.5 mb

Script developed by  Jim McMurry - jmcmurry@mwt.net Adapted for the template by  Wim van der Kuil - Leuven-Template.eu

Extremes: In Wyndham, Australia, the temperature reached 90 degrees F for 333 days in 1946.